Location: �bnet
(46.9957°N, 8.4908°E)
Time: 00:05:03
(UTC+00:00)

Cosmos 1733 Rocket - Pass Details

Date: 11 May 2021
Orbit: 603 x 628 km, 82.5° (Epoch: 18 June)

Event Time Altitude Azimuth Distance (km) Brightness Sun altitude
Rises 21:20:50 0° 359° (N) 2,873 7.5 -19.4°
Reaches altitude 10° 21:23:17 10° 10° (N) 1,962 6.3 -19.6°
Maximum altitude 21:27:09 31° 73° (ENE) 1,068 4.1 -19.9°
Enters shadow 21:27:49 30° 91° (E) 1,103 4.1 -20.0°
